[[{"header":{"parameterUnit":"m.s-1","parameterCategory":1,"la1":30.2991,"la2":30.254,"lo1":-89.0895,"lo2":-89.0444,"dy":0.0017,"dx":0.0017,"nx":28,"ny":28,"refTime":"2024-04-15T21:00:00:Z","depth":0,"parameterNumber":2,"parameterNumberName":"U-component_of_WINDS"},"data":[0,0,0,0,0,0,0,0,0,0,0,0,0,0,0,0,0,0,0,0,0,0,0,0,0,0,0,0,0,0,0,0,0,0,0,0,0,0,0,0,0,0,0,0,0,0,0,0,0,0,0,0,0,0,0,0,0,0,-2.6084,-2.6085,0,-2.6182,-2.6183,-2.6184,-2.6182,-2.6181,-2.6179,-2.6178,-2.628,-2.6284,-2.6288,0,0,0,0,0,0,0,0,0,0,0,0,0,-2.5897,-2.59,-2.6084,-2.6085,-2.6086,-2.6182,-2.6183,-2.6184,-2.6182,-2.618,-2.6179,-2.6177,-2.6278,-2.6283,-2.6288,0,0,0,0,0,0,0,0,0,0,0,0,0,-2.5985,-2.5902,-2.6084,-2.6097,-2.6099,-2.6182,-2.6183,-2.6185,-2.6182,-2.618,-2.6178,-2.6177,-2.6277,-2.6283,-2.6289,-2.6365,0,0,-2.6307,-2.6309,0,0,0,0,0,0,0,0,-2.598,-2.5992,-2.6094,-2.6096,-2.6098,-2.6168,-2.6155,-2.6245,-2.6183,-2.6151,-2.6178,-2.6176,-2.6244,-2.6253,-2.6275,-2.637,-2.6374,-2.6307,-2.6311,-2.6313,-2.6315,0,0,0,0,0,0,0,-2.5974,-2.5988,-2.6123,-2.6095,-2.6098,-2.6098,-2.6109,-2.6172,-2.6208,-2.6153,-2.6153,-2.6165,-2.6245,-2.627,-2.6278,-2.6376,-2.6307,-2.6312,-2.6316,-2.6318,-2.6539,-2.6541,0,0,0,0,0,0,-2.5965,-2.5983,-2.612,-2.6126,-2.6033,-2.6103,-2.6115,-2.6147,-2.6207,-2.6214,-2.6167,-2.6164,-2.6261,-2.6271,-2.6281,-2.6375,-2.6313,-2.6319,-2.6322,-2.6537,-2.6539,-2.6542,0,0,0,0,0,0,-2.5961,-2.5977,-2.6116,-2.6054,-2.6072,-2.6109,-2.6145,-2.615,-2.6175,-2.6217,-2.6223,-2.6185,-2.6259,-2.6273,-2.6344,-2.6379,-2.6322,-2.6327,-2.6534,-2.6537,-2.6541,-2.6563,0,0,0,0,0,0,-2.5955,-2.5976,-2.6005,-2.6055,-2.6075,-2.6176,-2.6147,-2.6154,-2.6185,-2.6183,-2.6236,-2.6243,-2.6259,-2.6336,-2.635,-2.6386,-2.6332,-2.6531,-2.6535,-2.654,-2.6559,-2.6567,-2.6573,0,0,0,0,0,-2.5949,-2.6007,-2.6006,-2.6023,-2.6112,-2.6178,-2.619,-2.6207,-2.6188,-2.6218,-2.6245,-2.6241,-2.6373,-2.6343,-2.636,-2.6397,-2.6529,-2.6534,-2.6539,-2.6556,-2.6565,-2.6573,0,0,0,0,0,0,-2.596,-2.6014,-2.6013,-2.609,-2.6129,-2.6178,-2.6216,-2.6216,-2.6263,-2.6259,-2.6279,-2.6291,-2.6362,-2.6387,-2.6353,-2.6475,-2.6448,-2.6457,-2.6456,-2.6465,-2.6471,-2.6463,-2.6336,0,0,0,0,0,-2.5972,-2.6021,-2.6065,-2.6128,-2.6148,-2.6179,-2.6208,-2.6218,-2.626,-2.6277,-2.6309,-2.6351,-2.6402,-2.6435,-2.6484,-2.6563,-2.6575,-2.6598,-2.6604,-2.661,-2.6617,-2.6661,-2.6671,-2.6559,-2.6559,-2.6559,0,0,-2.5996,-2.6031,-2.6061,-2.6131,-2.6163,-2.6214,-2.6193,-2.6247,-2.6285,-2.6286,-2.6355,-2.638,-2.6428,-2.6503,-2.6538,-2.6526,-2.6651,-2.6616,-2.662,-2.6625,-2.6667,-2.6678,-2.6687,-2.6562,-2.6562,-2.6561,0,0,-2.6065,-2.6097,-2.6153,-2.6186,-2.6234,-2.6254,-2.6268,-2.6317,-2.6333,-2.6403,-2.6404,-2.645,-2.6537,-2.6571,-2.66,-2.6683,-2.6682,-2.6699,-2.6734,-2.6777,-2.6786,-2.6794,-2.6823,-2.6833,-2.6706,-2.6706,-2.6706,0,-2.6089,-2.6165,-2.6182,-2.6237,-2.6268,-2.6271,-2.6328,-2.6359,-2.6421,-2.6443,-2.6429,-2.6538,-2.6571,-2.6654,-2.6674,-2.6698,-2.6714,-2.6692,-2.6783,-2.6791,-2.6799,-2.6827,-2.6838,-2.6708,-2.6708,-2.6708,-2.6707,0,-2.6192,-2.6244,-2.6284,-2.6343,-2.6379,-2.6435,-2.6461,-2.6496,-2.6503,-2.6524,-2.6596,-2.6635,-2.6692,-2.6713,-2.672,-2.6798,-2.6789,-2.6779,-2.6752,-2.6811,-2.6838,-2.6849,-2.671,-2.671,-2.6709,-2.6709,0,0,-2.627,-2.6339,-2.6353,-2.638,-2.6434,-2.6476,-2.6532,-2.6587,-2.6616,-2.666,-2.6708,-2.6782,-2.6773,-2.6805,-2.6817,-2.6855,-2.6918,-2.684,-2.6842,-2.6852,-2.7005,-2.7012,-2.7024,-2.6918,-2.692,-2.6922,-2.7001,0,-2.6345,-2.6443,-2.6461,-2.6548,-2.6597,-2.66,-2.665,-2.6689,-2.6711,-2.6756,-2.6781,-2.6833,-2.6817,-2.6837,-2.6875,-2.6902,-2.6949,-2.6897,-2.6962,-2.6964,-2.6949,-2.7038,-2.7045,-2.7118,-2.7012,-2.7013,-2.7015,0,-2.6445,-2.649,-2.6581,-2.6629,-2.665,-2.6694,-2.6746,-2.679,-2.6834,-2.6848,-2.6885,-2.6892,-2.6951,-2.6923,-2.7005,-2.697,-2.6998,-2.7016,-2.7019,-2.7025,-2.6992,-2.7045,-2.7142,-2.7152,-2.7032,-2.703,-2.7029,0,-2.6492,-2.6576,-2.6641,-2.6665,-2.6722,-2.6753,-2.6779,-2.6821,-2.6854,-2.69,-2.6921,-2.6974,-2.7002,-2.7043,-2.7065,-2.7043,-2.7146,-2.7119,-2.7158,-2.7158,-2.7179,-2.7177,-2.728,-2.7199,-2.7199,-2.7198,-2.7198,0,-2.6573,-2.6629,-2.6663,-2.6704,-2.6766,-2.6786,-2.6848,-2.6873,-2.6911,-2.6957,-2.6964,-2.7007,-2.7034,-2.7081,-2.7098,-2.7163,-2.7177,-2.7189,-2.7193,-2.7188,-2.7186,-2.7206,-2.7201,-2.7201,-2.7201,-2.72,-2.72,0,-2.6636,-2.6662,-2.6733,-2.6782,-2.6795,-2.6839,-2.6881,-2.6921,-2.6943,-2.7001,-2.7016,-2.7051,-2.7107,-2.7133,-2.7202,-2.7214,-2.7287,-2.7288,-2.7272,-2.7273,-2.7311,-2.7306,-2.7429,-2.7446,-2.7354,-2.7355,-2.7356,0,-2.6685,-2.6728,-2.6782,-2.6812,-2.6838,-2.6888,-2.6921,-2.6943,-2.6977,-2.7031,-2.7064,-2.712,-2.7166,-2.7254,-2.7287,-2.734,-2.7341,-2.7381,-2.7349,-2.7343,-2.7341,-2.7338,-2.7342,-2.7386,-2.7387,-2.7388,-2.7388,0,-2.6771,-2.6781,-2.6828,-2.6879,-2.6918,-2.696,-2.7001,-2.7026,-2.7055,-2.7093,-2.7149,-2.7185,-2.7255,-2.731,-2.7365,-2.7392,-2.7395,-2.7398,-2.741,-2.7404,-2.7393,-2.7399,-2.7286,-2.7395,-2.7394,-2.7394,-2.7393,-2.7393,-2.6828,-2.6866,-2.6909,-2.6961,-2.6995,-2.7033,-2.7072,-2.7099,-2.7147,-2.7205,-2.7216,-2.7276,-2.732,-2.7394,-2.7423,-2.7471,-2.7462,-2.7479,-2.7483,-2.7487,-2.7489,-2.7386,-2.7481,-2.7481,-2.7481,-2.7481,-2.7481,0,-2.6913,-2.6941,-2.6989,-2.7045,-2.7086,-2.7085,-2.7131,-2.7165,-2.7218,-2.7259,-2.7303,-2.7368,-2.7422,-2.7459,-2.7513,-2.7545,-2.7547,-2.7558,-2.7556,-2.7562,-2.7494,-2.7478,-2.7555,-2.7555,-2.7555,-2.7555,-2.7555,-2.7555,-2.6962,-2.7026,-2.7042,-2.7123,-2.7151,-2.7209,-2.7235,-2.7271,-2.7303,-2.7375,-2.742,-2.7443,-2.7483,-2.754,-2.759,-2.7599,-2.7619,-2.763,-2.7639,-2.7574,-2.7567,-2.7559,-2.7544,-2.7634,-2.7634,-2.7703,-2.7703,-2.7704]},{"header":{"parameterUnit":"m.s-1","parameterCategory":1,"la1":30.2991,"la2":30.254,"lo1":-89.0895,"lo2":-89.0444,"dy":0.0017,"dx":0.0017,"nx":28,"ny":28,"refTime":"2024-04-15T21:00:00:Z","depth":0,"parameterNumber":3,"parameterNumberName":"V-component_of_WINDS"},"data":[0,0,0,0,0,0,0,0,0,0,0,0,0,0,0,0,0,0,0,0,0,0,0,0,0,0,0,0,0,0,0,0,0,0,0,0,0,0,0,0,0,0,0,0,0,0,0,0,0,0,0,0,0,0,0,0,0,0,4.1722,4.1722,0,4.1739,4.174,4.174,4.1684,4.1682,4.1681,4.1679,4.1695,4.1697,4.1699,0,0,0,0,0,0,0,0,0,0,0,0,0,4.1638,4.164,4.1722,4.1722,4.1722,4.1739,4.174,4.174,4.1684,4.1682,4.168,4.1678,4.1695,4.1697,4.1699,0,0,0,0,0,0,0,0,0,0,0,0,0,4.1667,4.1641,4.1722,4.1696,4.1694,4.1739,4.174,4.174,4.1685,4.1682,4.168,4.1677,4.1694,4.1697,4.17,4.1769,0,0,4.1709,4.171,0,0,0,0,0,0,0,0,4.1666,4.167,4.17,4.1698,4.1696,4.1707,4.1716,4.175,4.1685,4.1688,4.1679,4.1676,4.1701,4.1703,4.1712,4.177,4.1771,4.1709,4.1711,4.1712,4.1713,0,0,0,0,0,0,0,4.1664,4.1669,4.1729,4.17,4.1698,4.1684,4.1685,4.1722,4.1709,4.1688,4.1684,4.1687,4.1699,4.1709,4.1712,4.1771,4.1709,4.1712,4.1714,4.1715,4.1889,4.1891,0,0,0,0,0,0,4.1665,4.1668,4.1728,4.1729,4.1674,4.1688,4.1689,4.1706,4.1708,4.1706,4.1689,4.1684,4.1706,4.1709,4.1713,4.1795,4.1712,4.1715,4.1717,4.1886,4.1889,4.1892,0,0,0,0,0,0,4.1664,4.1671,4.1727,4.1697,4.1704,4.1692,4.1711,4.1708,4.1718,4.1709,4.1706,4.1702,4.1704,4.1708,4.1756,4.1795,4.1717,4.1719,4.1882,4.1887,4.1891,4.1961,0,0,0,0,0,0,4.1661,4.1671,4.1697,4.1698,4.1705,4.1771,4.1714,4.171,4.1723,4.1717,4.172,4.1718,4.1702,4.1752,4.1759,4.1798,4.1722,4.1879,4.1884,4.1889,4.1955,4.1967,4.1977,0,0,0,0,0,4.1659,4.1715,4.1699,4.1706,4.1738,4.1773,4.1777,4.1758,4.1726,4.1753,4.1748,4.1718,4.179,4.1757,4.1765,4.1805,4.1876,4.1883,4.1889,4.195,4.1965,4.1977,0,0,0,0,0,0,4.1717,4.1715,4.1696,4.1755,4.1765,4.1764,4.1796,4.1774,4.1792,4.1785,4.176,4.1761,4.1814,4.1814,4.1778,4.1873,4.1828,4.1836,4.1872,4.1885,4.1896,4.1895,4.1724,0,0,0,0,0,4.1738,4.1767,4.1763,4.1815,4.1821,4.1808,4.1823,4.1807,4.1816,4.182,4.1818,4.1827,4.1852,4.1868,4.189,4.1955,4.1955,4.1986,4.1997,4.2007,4.2014,4.205,4.2064,4.1913,4.1913,4.1913,0,0,4.1779,4.1781,4.1801,4.1827,4.1833,4.1864,4.1812,4.1846,4.1869,4.1824,4.187,4.187,4.1878,4.1935,4.196,4.1937,4.2056,4.2015,4.2022,4.2025,4.2058,4.2072,4.2085,4.1917,4.1916,4.1916,0,0,4.187,4.1874,4.1919,4.1927,4.1937,4.1928,4.1939,4.1942,4.194,4.1986,4.1954,4.198,4.2023,4.2031,4.204,4.2137,4.2111,4.2145,4.2203,4.2238,4.225,4.2261,4.2296,4.2309,4.2152,4.2153,4.2153,0,4.192,4.1966,4.1945,4.1983,4.1996,4.1958,4.2004,4.2012,4.2028,4.2038,4.2012,4.2066,4.2069,4.2128,4.2152,4.2161,4.2173,4.2145,4.225,4.226,4.227,4.2304,4.2317,4.2157,4.2156,4.2156,4.2155,0,4.2027,4.206,4.2095,4.2114,4.213,4.2172,4.2157,4.2177,4.2161,4.2155,4.2203,4.2205,4.2228,4.2241,4.2224,4.2298,4.2284,4.2254,4.2208,4.2289,4.232,4.2333,4.2163,4.2161,4.216,4.2159,0,0,4.2155,4.2164,4.2177,4.2186,4.2195,4.2219,4.2259,4.2283,4.2301,4.2314,4.2347,4.2385,4.2359,4.237,4.2354,4.2385,4.2463,4.2352,4.2351,4.2373,4.2546,4.2569,4.2585,4.2446,4.2448,4.245,4.2546,0,4.2246,4.2316,4.23,4.2369,4.2399,4.2365,4.24,4.2409,4.2406,4.2431,4.2425,4.2454,4.2416,4.2423,4.2452,4.2448,4.2498,4.244,4.2477,4.2479,4.2477,4.2601,4.2625,4.2715,4.2558,4.256,4.2562,0,4.2362,4.2381,4.2454,4.246,4.2472,4.2504,4.2525,4.2549,4.256,4.2555,4.2568,4.2547,4.2587,4.254,4.2595,4.2557,4.2571,4.2571,4.2574,4.2577,4.2526,4.2608,4.2743,4.2758,4.2581,4.2579,4.2578,0,4.245,4.2494,4.2543,4.2552,4.2559,4.2583,4.2587,4.2595,4.2611,4.2629,4.264,4.2662,4.2674,4.2692,4.2678,4.2645,4.2736,4.2687,4.2733,4.2734,4.2754,4.2753,4.2894,4.2762,4.2762,4.2761,4.2761,0,4.2554,4.26,4.2583,4.2614,4.2665,4.2645,4.2696,4.2696,4.2704,4.2734,4.2705,4.2734,4.2712,4.2739,4.2728,4.2776,4.2782,4.2779,4.2776,4.2783,4.2783,4.2792,4.2786,4.2765,4.2764,4.2763,4.2763,0,4.2661,4.2651,4.2703,4.2707,4.271,4.2747,4.275,4.2779,4.2773,4.2812,4.282,4.2811,4.2841,4.2829,4.286,4.2853,4.2915,4.2903,4.2912,4.291,4.2957,4.2953,4.3109,4.3129,4.2983,4.2984,4.2986,0,4.2728,4.2763,4.2772,4.279,4.2797,4.2827,4.2844,4.2826,4.2845,4.286,4.2887,4.2916,4.2937,4.2988,4.2984,4.3008,4.2997,4.305,4.3001,4.3007,4.3,4.2998,4.3002,4.306,4.3062,4.3064,4.3065,0,4.2849,4.2844,4.2869,4.2894,4.2915,4.2933,4.2949,4.2965,4.2949,4.2971,4.3003,4.302,4.3053,4.3082,4.3104,4.3108,4.3084,4.308,4.3093,4.31,4.3105,4.3104,4.2941,4.3077,4.3076,4.3075,4.3074,4.3074,4.2939,4.297,4.2981,4.3011,4.3021,4.3037,4.3065,4.3064,4.309,4.3117,4.3104,4.3142,4.3152,4.318,4.3187,4.3216,4.3195,4.3212,4.3217,4.3221,4.3228,4.31,4.3219,4.3219,4.3219,4.3218,4.3218,0,4.3061,4.3067,4.3094,4.3118,4.3142,4.3118,4.3135,4.3156,4.319,4.3202,4.3225,4.3262,4.329,4.3289,4.3315,4.3338,4.3328,4.3346,4.3344,4.3346,4.3245,4.3232,4.3354,4.3354,4.3354,4.3354,4.3354,4.3354,4.3126,4.3177,4.3173,4.3229,4.3234,4.3271,4.3283,4.3297,4.3307,4.3351,4.3374,4.3374,4.3381,4.3408,4.3433,4.3432,4.3443,4.3466,4.3461,4.3366,4.3353,4.334,4.3328,4.3468,4.3468,4.356,4.3561,4.3561]}]]